| time (UTC) | temp F | wind direction | speed knots | gust knots | rain 1hr in | rain 24hr in | rain mn in | humidity % | barometer mb |
| 20260507052057 | 68 | 193 | 3.5 | 13.0 | 0.14 | 0.37 | 0.16 | 95 | 1011.8 |
| 20260507051546 | 68 | 160 | 4.3 | 13.0 | 0.13 | 0.36 | 0.16 | 95 | 1012.2 |
| 20260507051057 | 68 | 173 | 2.6 | 10.4 | 0.11 | 0.33 | 0.12 | 95 | 1013.0 |
| 20260507050546 | 68 | 176 | 6.1 | 10.4 | 0.09 | 0.31 | 0.10 | 95 | 1013.5 |
| 20260507050057 | 68 | 183 | 3.5 | 8.7 | 0.08 | 0.29 | 0.08 | 95 | 1013.2 |
| 20260507045601 | 68 | 198 | 3.5 | 8.7 | 0.07 | 0.28 | 0.07 | 95 | 1012.8 |
| 20260507044057 | 68 | 161 | 1.7 | 8.7 | 0.03 | 0.24 | 0.03 | 95 | 1012.5 |
| 20260507042545 | 69 | 174 | 2.6 | 7.0 | 0.02 | 0.23 | 0.02 | 94 | 1012.5 |
| 20260507042055 | 69 | 197 | 1.7 | 7.0 | 0.02 | 0.23 | 0.02 | 94 | 1012.5 |
| 20260507041545 | 69 | 134 | 1.7 | 6.1 | 0.02 | 0.23 | 0.02 | 94 | 1012.6 |
| 20260507040115 | 69 | 225 | 2.6 | 4.3 | 0.00 | 0.21 | 0.00 | 94 | 1012.9 |
| 20260507035556 | 69 | 176 | 1.7 | 5.2 | 0.00 | 0.21 | 0.21 | 94 | 1013.2 |
| 20260507035103 | 69 | 204 | 1.7 | 5.2 | 0.00 | 0.21 | 0.21 | 94 | 1012.7 |
| 20260507034549 | 69 | 184 | 0.9 | 3.5 | 0.00 | 0.21 | 0.21 | 94 | 1012.4 |
| 20260507034059 | 69 | 194 | 0.9 | 3.5 | 0.00 | 0.21 | 0.21 | 94 | 1012.4 |
| 20260507033548 | 69 | 184 | 0.0 | 3.5 | 0.00 | 0.21 | 0.21 | 94 | 1012.6 |
| 20260507033056 | 69 | 184 | 1.7 | 3.5 | 0.00 | 0.21 | 0.21 | 94 | 1012.4 |
| 20260507032553 | 69 | 160 | 1.7 | 5.2 | 0.01 | 0.21 | 0.21 | 94 | 1012.5 |
| 20260507032103 | 69 | 166 | 1.7 | 6.1 | 0.02 | 0.21 | 0.21 | 94 | 1012.6 |
| 20260507031554 | 69 | 174 | 2.6 | 8.7 | 0.03 | 0.21 | 0.21 | 94 | 1012.7 |
| 20260507031102 | 69 | 181 | 3.5 | 8.7 | 0.03 | 0.21 | 0.21 | 94 | 1013.0 |
| 20260507030555 | 69 | 216 | 2.6 | 6.1 | 0.03 | 0.21 | 0.21 | 94 | 1012.7 |
| 20260507030509 | 69 | 212 | 2.6 | 6.1 | 0.03 | 0.21 | 0.21 | 94 | 1011.3 |
| 20260507025552 | 70 | 262 | 2.6 | 9.6 | 0.04 | 0.21 | 0.21 | 94 | 1013.7 |
| 20260507025101 | 70 | 225 | 2.6 | 9.6 | 0.05 | 0.21 | 0.21 | 94 | 1013.7 |
| 20260507024547 | 70 | 193 | 2.6 | 9.6 | 0.06 | 0.21 | 0.21 | 94 | 1013.3 |
| 20260507024059 | 70 | 153 | 4.3 | 9.6 | 0.06 | 0.21 | 0.21 | 94 | 1013.3 |
| 20260507022552 | 71 | 167 | 1.7 | 2.6 | 0.12 | 0.20 | 0.20 | 94 | 1013.5 |
| 20260507022057 | 70 | 204 | 0.0 | 1.7 | 0.11 | 0.19 | 0.19 | 94 | 1013.4 |
| 20260507021547 | 71 | 204 | 0.0 | 0.0 | 0.10 | 0.18 | 0.18 | 94 | 1013.0 |
| 20260507021058 | 71 | 204 | 0.0 | 0.9 | 0.11 | 0.18 | 0.18 | 94 | 1012.7 |
| 20260507020545 | 71 | 204 | 0.0 | 0.9 | 0.11 | 0.18 | 0.18 | 94 | 1012.6 |
| 20260507020053 | 71 | 204 | 0.0 | 0.0 | 0.12 | 0.18 | 0.18 | 94 | 1012.5 |
| 20260507015600 | 71 | 204 | 0.0 | 0.0 | 0.17 | 0.17 | 0.17 | 93 | 1012.8 |
| 20260507015050 | 71 | 204 | 0.0 | 0.0 | 0.16 | 0.16 | 0.16 | 93 | 1012.8 |
| 20260507014602 | 71 | 204 | 0.0 | 0.0 | 0.15 | 0.15 | 0.15 | 93 | 1012.8 |
| 20260507014051 | 71 | 204 | 0.0 | 0.0 | 0.15 | 0.15 | 0.15 | 93 | 1012.4 |
| 20260507013600 | 71 | 204 | 0.0 | 0.0 | 0.14 | 0.14 | 0.14 | 92 | 1012.5 |
| 20260507013107 | 71 | 205 | 0.0 | 0.0 | 0.09 | 0.09 | 0.09 | 92 | 1012.9 |
| 20260507012550 | 71 | 205 | 0.0 | 0.0 | 0.08 | 0.08 | 0.08 | 91 | 1013.2 |
| 20260507012057 | 72 | 205 | 0.0 | 0.0 | 0.08 | 0.08 | 0.08 | 90 | 1012.8 |
| 20260507011551 | 72 | 205 | 0.0 | 0.0 | 0.08 | 0.08 | 0.08 | 89 | 1012.8 |
| 20260507011102 | 73 | 205 | 0.0 | 0.0 | 0.07 | 0.07 | 0.07 | 87 | 1012.9 |
| 20260507010554 | 74 | 205 | 0.0 | 1.7 | 0.07 | 0.07 | 0.07 | 85 | 1013.0 |
| 20260507005550 | 76 | 186 | 0.9 | 2.6 | 0.00 | 0.00 | 0.00 | 77 | 1013.1 |
| 20260507005056 | 76 | 188 | 0.9 | 3.5 | 0.00 | 0.00 | 0.00 | 76 | 1012.7 |
| 20260507004604 | 76 | 180 | 1.7 | 5.2 | 0.00 | 0.00 | 0.00 | 76 | 1012.8 |
| 20260507003054 | 76 | 157 | 1.7 | 6.1 | 0.00 | 0.00 | 0.00 | 76 | 1012.8 |
| 20260507002557 | 76 | 196 | 1.7 | 6.1 | 0.00 | 0.00 | 0.00 | 76 | 1012.7 |
| 20260507002045 | 77 | 154 | 1.7 | 6.1 | 0.00 | 0.00 | 0.00 | 75 | 1012.7 |
| 20260507001555 | 77 | 195 | 1.7 | 6.1 | 0.00 | 0.00 | 0.00 | 75 | 1012.7 |
| 20260507000559 | 77 | 170 | 3.5 | 7.0 | 0.00 | 0.00 | 0.00 | 74 | 1012.7 |
| 20260507000051 | 77 | 208 | 3.5 | 7.0 | 0.00 | 0.00 | 0.00 | 74 | 1012.7 |
| 20260506235557 | 77 | 243 | 2.6 | 4.3 | 0.00 | 0.00 | 0.00 | 74 | 1012.8 |
| 20260506235044 | 77 | 196 | 2.6 | 7.0 | 0.00 | 0.00 | 0.00 | 74 | 1012.6 |
| 20260506234553 | 77 | 190 | 3.5 | 7.0 | 0.00 | 0.00 | 0.00 | 74 | 1012.3 |
| 20260506234042 | 77 | 193 | 1.7 | 5.2 | 0.00 | 0.00 | 0.00 | 74 | 1012.1 |
| 20260506233555 | 77 | 182 | 1.7 | 4.3 | 0.00 | 0.00 | 0.00 | 74 | 1011.9 |
| 20260506232552 | 77 | 233 | 0.9 | 4.3 | 0.00 | 0.00 | 0.00 | 73 | 1012.2 |
| 20260506232102 | 77 | 153 | 0.9 | 4.3 | 0.00 | 0.00 | 0.00 | 73 | 1012.1 |
| 20260506231551 | 78 | 218 | 1.7 | 5.2 | 0.00 | 0.00 | 0.00 | 73 | 1012.4 |
| 20260506231102 | 78 | 200 | 1.7 | 6.1 | 0.00 | 0.00 | 0.00 | 72 | 1012.5 |
| 20260506230547 | 78 | 200 | 1.7 | 5.2 | 0.00 | 0.00 | 0.00 | 72 | 1012.2 |
| 20260506230056 | 78 | 195 | 1.7 | 6.1 | 0.00 | 0.00 | 0.00 | 72 | 1012.2 |
| 20260506225603 | 78 | 184 | 2.6 | 6.1 | 0.00 | 0.00 | 0.00 | 71 | 1012.4 |
| 20260506224603 | 78 | 169 | 1.7 | 6.1 | 0.00 | 0.00 | 0.00 | 71 | 1012.2 |
| 20260506224048 | 78 | 158 | 1.7 | 7.0 | 0.00 | 0.00 | 0.00 | 71 | 1012.4 |
| 20260506223554 | 78 | 198 | 1.7 | 7.0 | 0.00 | 0.00 | 0.00 | 71 | 1012.6 |
| 20260506223506 | 78 | 216 | 1.7 | 7.0 | 0.00 | 0.00 | 0.00 | 71 | 1011.2 |
| 20260506222547 | 78 | 163 | 1.7 | 4.3 | 0.00 | 0.00 | 0.00 | 71 | 1012.4 |
| 20260506222056 | 78 | 167 | 1.7 | 6.1 | 0.00 | 0.00 | 0.00 | 71 | 1012.3 |
| 20260506221603 | 79 | 175 | 0.9 | 6.1 | 0.00 | 0.00 | 0.00 | 71 | 1012.4 |
| 20260506221052 | 79 | 166 | 1.7 | 7.8 | 0.00 | 0.00 | 0.00 | 71 | 1012.5 |
| 20260506220052 | 79 | 249 | 1.7 | 7.0 | 0.00 | 0.00 | 0.00 | 69 | 1012.3 |
| 20260506215103 | 80 | 184 | 2.6 | 8.7 | 0.00 | 0.00 | 0.00 | 69 | 1012.1 |
| 20260506214550 | 80 | 148 | 2.6 | 8.7 | 0.00 | 0.00 | 0.00 | 68 | 1011.9 |
| 20260506213551 | 79 | 227 | 2.6 | 7.0 | 0.00 | 0.00 | 0.00 | 69 | 1012.2 |
| 20260506213502 | 79 | 165 | 1.7 | 7.0 | 0.00 | 0.00 | 0.00 | 69 | 1010.8 |
| 20260506212601 | 80 | 241 | 4.3 | 9.6 | 0.00 | 0.00 | 0.00 | 69 | 1012.3 |
| 20260506212051 | 80 | 231 | 3.5 | 7.8 | 0.00 | 0.00 | 0.00 | 69 | 1012.4 |
| 20260506211558 | 80 | 113 | 1.7 | 8.7 | 0.00 | 0.00 | 0.00 | 70 | 1012.4 |
| 20260506211102 | 79 | 214 | 2.6 | 8.7 | 0.00 | 0.00 | 0.00 | 70 | 1012.3 |
| 20260506210550 | 79 | 148 | 2.6 | 7.0 | 0.00 | 0.00 | 0.00 | 70 | 1012.5 |
| 20260506205550 | 79 | 197 | 4.3 | 8.7 | 0.00 | 0.00 | 0.00 | 68 | 1012.5 |
| 20260506204047 | 80 | 203 | 1.7 | 8.7 | 0.00 | 0.00 | 0.00 | 69 | 1013.0 |
| 20260506203049 | 80 | 262 | 2.6 | 7.0 | 0.00 | 0.00 | 0.00 | 69 | 1013.1 |
| 20260506202558 | 80 | 208 | 2.6 | 7.8 | 0.00 | 0.00 | 0.00 | 68 | 1013.2 |
| 20260506201552 | 80 | 183 | 2.6 | 11.3 | 0.00 | 0.00 | 0.00 | 70 | 1013.4 |
| 20260506201102 | 79 | 169 | 4.3 | 11.3 | 0.00 | 0.00 | 0.00 | 69 | 1013.4 |
| 20260506200550 | 79 | 231 | 3.5 | 9.6 | 0.00 | 0.00 | 0.00 | 70 | 1013.5 |
| 20260506200059 | 79 | 248 | 4.3 | 9.6 | 0.00 | 0.00 | 0.00 | 69 | 1013.5 |
| 20260506195602 | 79 | 264 | 3.5 | 10.4 | 0.00 | 0.00 | 0.00 | 67 | 1013.7 |
| 20260506195049 | 79 | 203 | 4.3 | 10.4 | 0.00 | 0.00 | 0.00 | 68 | 1013.9 |
| 20260506194559 | 80 | 169 | 1.7 | 6.1 | 0.00 | 0.00 | 0.00 | 67 | 1014.0 |
| 20260506194052 | 80 | 193 | 1.7 | 7.0 | 0.00 | 0.00 | 0.00 | 67 | 1014.1 |
| 20260506192558 | 80 | 169 | 1.7 | 7.8 | 0.00 | 0.00 | 0.00 | 66 | 1014.1 |
| 20260506192048 | 80 | 178 | 3.5 | 9.6 | 0.00 | 0.00 | 0.00 | 66 | 1014.4 |
| 20260506191556 | 79 | 192 | 3.5 | 9.6 | 0.00 | 0.00 | 0.00 | 68 | 1014.6 |
| 20260506191045 | 79 | 160 | 3.5 | 9.6 | 0.00 | 0.00 | 0.00 | 67 | 1014.6 |
| 20260506190556 | 80 | 181 | 2.6 | 7.0 | 0.00 | 0.00 | 0.00 | 66 | 1014.5 |
| 20260506190046 | 79 | 193 | 3.5 | 7.0 | 0.00 | 0.00 | 0.00 | 68 | 1014.8 |
| 20260506185101 | 78 | 198 | 3.5 | 8.7 | 0.00 | 0.00 | 0.00 | 66 | 1014.8 |
| 20260506184552 | 79 | 185 | 3.5 | 7.8 | 0.00 | 0.00 | 0.00 | 66 | 1014.7 |
| 20260506184102 | 79 | 169 | 3.5 | 8.7 | 0.00 | 0.00 | 0.00 | 65 | 1014.9 |
| 20260506183551 | 80 | 266 | 3.5 | 8.7 | 0.00 | 0.00 | 0.00 | 65 | 1014.9 |
| 20260506182053 | 79 | 191 | 1.7 | 8.7 | 0.00 | 0.00 | 0.00 | 66 | 1014.8 |
| 20260506181601 | 79 | 172 | 4.3 | 8.7 | 0.00 | 0.00 | 0.00 | 66 | 1014.8 |
| 20260506181053 | 78 | 244 | 1.7 | 7.0 | 0.00 | 0.00 | 0.00 | 66 | 1014.7 |
| 20260506180559 | 78 | 212 | 3.5 | 7.0 | 0.00 | 0.00 | 0.00 | 66 | 1014.9 |
| 20260506180106 | 78 | 188 | 2.6 | 6.1 | 0.00 | 0.00 | 0.00 | 67 | 1014.9 |
| 20260506175554 | 78 | 197 | 2.6 | 7.8 | 0.00 | 0.00 | 0.00 | 66 | 1014.8 |
| 20260506175102 | 78 | 240 | 3.5 | 7.8 | 0.00 | 0.00 | 0.00 | 66 | 1014.7 |
| 20260506174546 | 79 | 171 | 4.3 | 10.4 | 0.00 | 0.00 | 0.00 | 65 | 1014.7 |
| 20260506174058 | 80 | 232 | 3.5 | 10.4 | 0.00 | 0.00 | 0.00 | 65 | 1014.6 |
| 20260506173547 | 80 | 179 | 3.5 | 7.8 | 0.00 | 0.00 | 0.00 | 65 | 1014.6 |
| 20260506173054 | 81 | 249 | 2.6 | 6.1 | 0.00 | 0.00 | 0.00 | 64 | 1014.6 |
| 20260506172602 | 81 | 203 | 2.6 | 7.8 | 0.00 | 0.00 | 0.00 | 64 | 1014.7 |
| 20260506171545 | 79 | 172 | 1.7 | 6.1 | 0.00 | 0.00 | 0.00 | 69 | 1014.8 |
| 20260506171056 | 79 | 171 | 1.7 | 7.0 | 0.00 | 0.00 | 0.00 | 67 | 1014.9 |
| 20260506170603 | 78 | 181 | 4.3 | 12.2 | 0.00 | 0.00 | 0.00 | 68 | 1014.9 |
| 20260506170125 | 76 | 214 | 3.5 | 12.2 | 0.00 | 0.00 | 0.00 | 68 | 1015.0 |
| 20260506165602 | 76 | 201 | 2.6 | 10.4 | 0.00 | 0.00 | 0.00 | 70 | 1015.1 |
| 20260506165051 | 76 | 204 | 2.6 | 5.2 | 0.00 | 0.00 | 0.00 | 70 | 1015.3 |
| 20260506164602 | 76 | 236 | 2.6 | 8.7 | 0.00 | 0.00 | 0.00 | 71 | 1015.3 |
| 20260506164050 | 76 | 192 | 4.3 | 8.7 | 0.00 | 0.00 | 0.00 | 70 | 1015.5 |
| 20260506163108 | 76 | 195 | 4.3 | 11.3 | 0.00 | 0.00 | 0.00 | 69 | 1015.5 |
| 20260506162046 | 76 | 243 | 2.6 | 8.7 | 0.00 | 0.00 | 0.00 | 71 | 1015.6 |
| 20260506161554 | 76 | 240 | 1.7 | 9.6 | 0.00 | 0.00 | 0.00 | 71 | 1015.8 |
| 20260506161046 | 76 | 182 | 4.3 | 9.6 | 0.00 | 0.00 | 0.00 | 70 | 1015.9 |
| 20260506160558 | 76 | 232 | 1.7 | 9.6 | 0.00 | 0.00 | 0.00 | 71 | 1015.9 |
| 20260506160049 | 75 | 229 | 3.5 | 9.6 | 0.00 | 0.00 | 0.00 | 72 | 1016.1 |
| 20260506155548 | 74 | 169 | 3.5 | 7.8 | 0.00 | 0.00 | 0.00 | 74 | 1016.2 |
| 20260506155101 | 74 | 227 | 3.5 | 7.8 | 0.00 | 0.00 | 0.00 | 74 | 1016.2 |
| 20260506154550 | 74 | 159 | 2.6 | 7.8 | 0.00 | 0.00 | 0.00 | 75 | 1016.3 |
| 20260506153552 | 73 | 176 | 2.6 | 7.0 | 0.00 | 0.00 | 0.00 | 74 | 1016.5 |
| 20260506153057 | 73 | 252 | 2.6 | 7.8 | 0.00 | 0.00 | 0.00 | 75 | 1016.4 |
| 20260506152602 | 73 | 229 | 3.5 | 10.4 | 0.00 | 0.00 | 0.00 | 76 | 1016.4 |
| 20260506152052 | 72 | 252 | 6.1 | 10.4 | 0.00 | 0.00 | 0.00 | 75 | 1016.4 |
| 20260506151602 | 72 | 240 | 3.5 | 7.8 | 0.00 | 0.00 | 0.00 | 75 | 1016.3 |
| 20260506151050 | 72 | 264 | 2.6 | 10.4 | 0.00 | 0.00 | 0.00 | 75 | 1016.3 |
| 20260506145555 | 72 | 182 | 3.5 | 8.7 | 0.00 | 0.00 | 0.00 | 74 | 1016.2 |
| 20260506145046 | 72 | 143 | 4.3 | 9.6 | 0.00 | 0.00 | 0.00 | 73 | 1016.4 |
| 20260506144557 | 73 | 213 | 5.2 | 10.4 | 0.00 | 0.00 | 0.00 | 74 | 1016.3 |
| 20260506143052 | 72 | 177 | 1.7 | 8.7 | 0.00 | 0.00 | 0.00 | 76 | 1016.0 |
| 20260506142557 | 72 | 252 | 1.7 | 4.3 | 0.00 | 0.00 | 0.00 | 76 | 1015.9 |
| 20260506140556 | 71 | 219 | 2.6 | 7.8 | 0.00 | 0.00 | 0.00 | 79 | 1015.9 |
| 20260506140045 | 71 | 179 | 3.5 | 7.8 | 0.00 | 0.00 | 0.00 | 80 | 1015.7 |
| 20260506135555 | 70 | 189 | 4.3 | 9.6 | 0.00 | 0.00 | 0.00 | 81 | 1015.4 |
| 20260506135101 | 69 | 212 | 3.5 | 9.6 | 0.00 | 0.00 | 0.00 | 83 | 1015.4 |
| 20260506134102 | 69 | 178 | 3.5 | 7.8 | 0.00 | 0.00 | 0.00 | 84 | 1015.2 |
| 20260506133553 | 69 | 208 | 1.7 | 7.8 | 0.00 | 0.00 | 0.00 | 84 | 1015.1 |
| 20260506133103 | 69 | 167 | 4.3 | 7.8 | 0.00 | 0.00 | 0.00 | 84 | 1015.1 |
| 20260506132549 | 68 | 229 | 1.7 | 7.0 | 0.00 | 0.00 | 0.00 | 85 | 1015.2 |
| 20260506132059 | 68 | 176 | 3.5 | 7.0 | 0.00 | 0.00 | 0.00 | 85 | 1015.2 |
| 20260506131549 | 68 | 173 | 2.6 | 5.2 | 0.00 | 0.00 | 0.00 | 85 | 1015.2 |
| 20260506131055 | 68 | 172 | 2.6 | 9.6 | 0.00 | 0.00 | 0.00 | 86 | 1015.1 |
| 20260506130544 | 68 | 178 | 1.7 | 9.6 | 0.00 | 0.00 | 0.00 | 86 | 1015.1 |
| 20260506130055 | 68 | 193 | 4.3 | 7.8 | 0.00 | 0.00 | 0.00 | 86 | 1014.9 |
| 20260506125559 | 67 | 186 | 1.7 | 6.1 | 0.00 | 0.00 | 0.00 | 88 | 1015.1 |
| 20260506125051 | 67 | 186 | 3.5 | 7.0 | 0.00 | 0.00 | 0.00 | 88 | 1015.2 |
| 20260506124600 | 66 | 141 | 3.5 | 7.0 | 0.00 | 0.00 | 0.00 | 88 | 1015.3 |
| 20260506124052 | 66 | 153 | 1.7 | 6.1 | 0.00 | 0.00 | 0.00 | 88 | 1015.3 |
| 20260506123601 | 66 | 172 | 1.7 | 6.1 | 0.00 | 0.00 | 0.00 | 88 | 1015.1 |
| 20260506123106 | 66 | 196 | 0.9 | 5.2 | 0.00 | 0.00 | 0.00 | 88 | 1015.0 |
| 20260506122548 | 66 | 174 | 3.5 | 5.2 | 0.00 | 0.00 | 0.00 | 88 | 1015.1 |
| 20260506122057 | 65 | 182 | 2.6 | 5.2 | 0.00 | 0.00 | 0.00 | 88 | 1015.0 |
| 20260506121546 | 65 | 217 | 0.9 | 5.2 | 0.00 | 0.00 | 0.00 | 88 | 1015.0 |
| 20260506121059 | 65 | 207 | 0.9 | 4.3 | 0.00 | 0.00 | 0.00 | 88 | 1014.9 |
| 20260506115547 | 65 | 175 | 0.9 | 2.6 | 0.00 | 0.00 | 0.00 | 88 | 1014.8 |
| 20260506115057 | 64 | 205 | 0.9 | 4.3 | 0.00 | 0.00 | 0.00 | 88 | 1014.7 |
| 20260506114100 | 64 | 202 | 1.7 | 4.3 | 0.00 | 0.00 | 0.00 | 88 | 1014.6 |
| 20260506113551 | 64 | 193 | 1.7 | 4.3 | 0.00 | 0.00 | 0.00 | 88 | 1014.6 |
| 20260506113101 | 64 | 152 | 2.6 | 4.3 | 0.00 | 0.00 | 0.00 | 88 | 1014.6 |
| 20260506112058 | 64 | 206 | 1.7 | 3.5 | 0.00 | 0.00 | 0.00 | 87 | 1014.6 |
| 20260506111549 | 63 | 191 | 0.9 | 3.5 | 0.00 | 0.00 | 0.00 | 87 | 1014.6 |
| 20260506111059 | 63 | 141 | 0.9 | 3.5 | 0.00 | 0.00 | 0.00 | 87 | 1014.5 |
| 20260506110551 | 63 | 191 | 0.9 | 3.5 | 0.00 | 0.00 | 0.00 | 86 | 1014.3 |
| 20260506110507 | 63 | 191 | 0.9 | 3.5 | 0.00 | 0.00 | 0.00 | 87 | 1013.3 |
| 20260506110133 | 63 | 186 | 0.9 | 4.3 | 0.00 | 0.00 | 0.00 | 86 | 1014.3 |
| 20260506110025 | 63 | 201 | 0.0 | 4.3 | 0.00 | 0.00 | 0.00 | 86 | 1013.3 |
| 20260506105552 | 63 | 238 | 1.7 | 4.3 | 0.00 | 0.00 | 0.00 | 86 | 1014.4 |
| 20260506105102 | 64 | 207 | 1.7 | 3.5 | 0.00 | 0.00 | 0.00 | 86 | 1014.4 |
| 20260506104552 | 64 | 221 | 0.9 | 3.5 | 0.00 | 0.00 | 0.00 | 85 | 1014.2 |
| 20260506104056 | 64 | 205 | 0.9 | 4.3 | 0.00 | 0.00 | 0.00 | 86 | 1014.1 |
| 20260506103605 | 64 | 186 | 1.7 | 6.1 | 0.00 | 0.00 | 0.00 | 86 | 1013.9 |
| 20260506103055 | 64 | 211 | 2.6 | 4.3 | 0.00 | 0.00 | 0.00 | 85 | 1013.9 |
| 20260506102601 | 64 | 205 | 1.7 | 5.2 | 0.00 | 0.00 | 0.00 | 85 | 1013.8 |
| 20260506102106 | 64 | 186 | 2.6 | 5.2 | 0.00 | 0.00 | 0.00 | 85 | 1013.7 |
| 20260506101549 | 64 | 160 | 2.6 | 4.3 | 0.00 | 0.00 | 0.00 | 85 | 1013.5 |
| 20260506100057 | 64 | 188 | 1.7 | 4.3 | 0.00 | 0.00 | 0.00 | 84 | 1013.3 |
| 20260506095601 | 64 | 176 | 1.7 | 7.0 | 0.00 | 0.00 | 0.00 | 84 | 1013.4 |
| 20260506095050 | 64 | 172 | 2.6 | 7.0 | 0.00 | 0.00 | 0.00 | 84 | 1013.5 |
| 20260506094556 | 64 | 167 | 1.7 | 7.0 | 0.00 | 0.00 | 0.00 | 84 | 1013.6 |
| 20260506094048 | 64 | 175 | 2.6 | 7.0 | 0.00 | 0.00 | 0.00 | 83 | 1013.5 |
| 20260506093102 | 64 | 177 | 1.7 | 4.3 | 0.00 | 0.00 | 0.00 | 82 | 1013.4 |
| 20260506092548 | 64 | 232 | 1.7 | 4.3 | 0.00 | 0.00 | 0.00 | 82 | 1013.3 |
| 20260506092056 | 64 | 190 | 0.9 | 3.5 | 0.00 | 0.00 | 0.00 | 81 | 1013.2 |
| 20260506091055 | 65 | 195 | 0.9 | 1.7 | 0.00 | 0.00 | 0.00 | 81 | 1013.2 |
| 20260506090606 | 65 | 203 | 0.9 | 1.7 | 0.00 | 0.00 | 0.00 | 81 | 1013.1 |
| 20260506085602 | 65 | 172 | 0.0 | 2.6 | 0.00 | 0.00 | 0.00 | 80 | 1013.2 |
| 20260506085050 | 65 | 172 | 0.9 | 2.6 | 0.00 | 0.00 | 0.00 | 80 | 1013.2 |
| 20260506084047 | 65 | 189 | 0.9 | 3.5 | 0.00 | 0.00 | 0.00 | 79 | 1013.2 |
| 20260506083558 | 65 | 180 | 1.7 | 3.5 | 0.00 | 0.00 | 0.00 | 79 | 1013.2 |
| 20260506083046 | 65 | 200 | 0.9 | 3.5 | 0.00 | 0.00 | 0.00 | 79 | 1013.3 |
| 20260506082554 | 65 | 108 | 0.0 | 5.2 | 0.00 | 0.00 | 0.00 | 78 | 1013.2 |
| 20260506082059 | 65 | 179 | 1.7 | 5.2 | 0.00 | 0.00 | 0.00 | 78 | 1013.3 |
| 20260506081548 | 65 | 186 | 1.7 | 3.5 | 0.00 | 0.00 | 0.00 | 77 | 1013.2 |
| 20260506081056 | 65 | 170 | 1.7 | 3.5 | 0.00 | 0.00 | 0.00 | 77 | 1013.3 |
| 20260506073049 | 64 | 165 | 0.0 | 0.0 | 0.00 | 0.00 | 0.00 | 73 | 1013.5 |
| 20260506072047 | 64 | 188 | 0.0 | 1.7 | 0.00 | 0.00 | 0.00 | 73 | 1013.8 |
| 20260506071101 | 64 | 188 | 0.0 | 0.9 | 0.00 | 0.00 | 0.00 | 71 | 1014.0 |
| 20260506062052 | 66 | 188 | 0.0 | 1.7 | 0.00 | 0.00 | 0.00 | 65 | 1014.1 |
| 20260506061556 | 66 | 188 | 0.0 | 1.7 | 0.00 | 0.00 | 0.00 | 65 | 1014.1 |
| 20260506061047 | 66 | 188 | 0.0 | 2.6 | 0.00 | 0.00 | 0.00 | 64 | 1014.1 |
| 20260506060557 | 67 | 188 | 0.9 | 4.3 | 0.00 | 0.00 | 0.00 | 64 | 1014.1 |
| 20260506060107 | 67 | 190 | 1.7 | 4.3 | 0.00 | 0.00 | 0.00 | 63 | 1014.1 |